Home > Weather > Santarém > Past weeks

Flag for Brazil Weather for the Past 2 Weeks in Santarém, Pará, Brazil

Now
84 °F

Scattered clouds.


Feels Like: 91 °F
Forecast: N/A
Wind: 5 mph from Northeast

Location: Santarem-Aeroporto

Current Time: Feb 13, 2016 at 6:47:52 PM

Latest Report: Feb 13, 2016 at 6:00 PM


Visibility: N/A

Pressure: 29.80 "Hg

Humidity: 70%

Dew point: 73 °F

Location of SantarémLocation

Historic Weather in Santarém — Graph

°F

Santarém Temperature Yesterday

Maximum temperature yesterday: 86 °F (at 5:00 PM)
Minimum temperature yesterday: 75 °F (at 12:00 AM)
Average temperature yesterday: 80 °F

High & Low Weather Summary for the Past Weeks

 TemperatureHumidityPressure
High91 °F (Jan 29, 5:00 PM)100% (Feb 1, 4:00 AM)30.01 "Hg (Feb 1, 4:00 AM)
Low73 °F (Jan 31, 8:00 AM)18% (Jan 30, 6:00 PM)29.74 "Hg (Feb 4, 5:00 PM)
Average81 °F81%29.87 "Hg
* Reported Jan 29 5:00 PM — Feb 13 5:00 PM, Santarém, Weather by CustomWeather, © 2016

Note: Actual official high and low records may vary slightly from our data, if they occured in-between our weather recording intervals... More about our weather records

Advertising

Santarém Weather History for the Previous 24 Hours

 ConditionsComfort  
Time TempWeatherWind HumidityBarometerVisibility
5:00 PM
Sat, Feb 13
86 °FScattered clouds.7 mph62%29.80 "HgN/A
4:00 PM86 °FPartly sunny.7 mph70%29.83 "HgN/A
3:00 PM84 °FBroken clouds.9 mph74%29.86 "HgN/A
2:00 PM82 °FBroken clouds.8 mph79%29.89 "HgN/A
1:00 PM81 °FBroken clouds.7 mph79%29.92 "HgN/A
12:00 PM81 °FBroken clouds.2 mph84%29.95 "HgN/A
11:00 AM79 °FLight rain. More clouds than sun.No wind84%29.95 "HgN/A
10:00 AM77 °FLight rain. More clouds than sun.No wind89%29.95 "HgN/A
9:00 AM77 °FLight rain. More clouds than sun.3 mph89%29.95 "HgN/A
8:00 AM75 °FLight rain. More clouds than sun.No wind94%29.92 "HgN/A
7:00 AM75 °FLight rain. Mostly cloudy.5 mph94%29.89 "HgN/A
6:00 AM75 °FLight rain. Mostly cloudy.8 mph94%29.89 "HgN/A
5:00 AM75 °FLight rain. Mostly cloudy.12 mph94%29.86 "HgN/A
4:00 AM75 °FLight rain. Mostly cloudy.8 mph94%29.86 "HgN/A
3:00 AM77 °FLight rain. Mostly cloudy.10 mph89%29.86 "HgN/A
2:00 AM77 °FLight rain. Partly cloudy.2 mph89%29.86 "HgN/A
1:00 AM79 °FPassing clouds.8 mph89%29.86 "HgN/A
12:00 AM75 °FPassing clouds.No wind94%29.86 "HgN/A
11:00 PM
Fri, Feb 12
77 °FClear.No wind89%29.86 "Hg10 mi
10:00 PM75 °FClear.No wind94%29.86 "Hg10 mi
9:00 PM77 °FClear.No wind89%29.83 "Hg10 mi
8:00 PM79 °FPassing clouds.3 mph84%29.83 "HgN/A
7:00 PM82 °FPartly sunny.5 mph74%29.80 "HgN/A
6:00 PM86 °FScattered clouds.3 mph70%29.80 "HgN/A
Weather by CustomWeather, © 2016

See weather overviewHow to use our weather pages